Location: Ponderosa Basin
(37.4660°N, 119.7357°W)
Time: 02:18:05
(UTC+00:00)

ARGOS - Pass Details

Date: 03 August 2024
Orbit: 818 x 834 km, 98.4° (Epoch: 08 September)

Event Time Altitude Azimuth Distance (km) Brightness Sun altitude
Rises 12:31:19 0° 17° (NNE) 3,376 7.1 -6.9°
Reaches altitude 10° 12:33:44 10° 21° (NNE) 2,436 6.4 -6.5°
Maximum altitude 12:39:03 59° 101° (E) 947 3.8 -5.6°
Drops below altitude 10° 12:44:19 10° 180° (S) 2,410 5.3 -4.6°
Sets 12:46:41 0° 184° (S) 3,336 6.0 -4.2°
